{"data":{"norad_id":52566,"epoch":"2026-05-25T01:05:56.356224Z","epoch_age_seconds":65101,"freshness":"FRESH","line1":"1 52566U 22051AK  26145.04579116  .00000319  00000+0  38151-4 0  9999","line2":"2 52566  53.2123 151.3445 0000961  70.9630 289.1466 15.08828713222900","mean_motion":15.08828713,"eccentricity":9.61e-5,"inclination_deg":53.2123,"raan_deg":151.3445,"arg_perigee_deg":70.963,"mean_anomaly_deg":289.1466,"bstar":3.8151e-5,"rev_number":22290,"period_min":95.438268611475,"perigee_km":539.1130774019,"apogee_km":540.44270064357,"semimajor_km":6917.9148890227,"source":"CELESTRAK","updated_at":"2026-05-25T13:38:17.167719Z"}}